TimeMST,TemperatureF,Dew PointF,Humidity,Sea Level PressureIn,VisibilityMPH,Wind Direction,Wind SpeedMPH,Gust SpeedMPH,PrecipitationIn,Events,Conditions,WindDirDegrees,DateUTC
12:53 AM,33.1,23.0,66,29.84,10.0,SW,10.4,18.4,N/A,,Clear,220,2012-12-07 07:53:00
1:53 AM,34.0,21.9,61,29.83,10.0,SW,9.2,-,N/A,,Clear,220,2012-12-07 08:53:00
2:53 AM,37.0,21.9,54,29.82,10.0,WSW,8.1,-,N/A,,Overcast,240,2012-12-07 09:53:00
3:53 AM,37.0,23.0,57,29.80,10.0,SW,9.2,-,N/A,,Overcast,230,2012-12-07 10:53:00
4:33 AM,30.2,24.8,80,29.78,10.0,NNW,9.2,-,N/A,,Overcast,340,2012-12-07 11:33:00
4:53 AM,30.0,26.1,85,29.90,10.0,NNW,6.9,-,N/A,,Overcast,340,2012-12-07 11:53:00
5:29 AM,28.4,26.6,93,29.82,10.0,NNW,6.9,-,N/A,,Overcast,340,2012-12-07 12:29:00
5:37 AM,28.4,26.6,93,29.81,10.0,NNW,5.8,-,N/A,,Overcast,340,2012-12-07 12:37:00
5:53 AM,28.9,26.1,89,29.94,10.0,NNW,8.1,-,N/A,,Overcast,330,2012-12-07 12:53:00
6:53 AM,28.9,26.1,89,29.98,10.0,NW,5.8,-,N/A,,Mostly Cloudy,320,2012-12-07 13:53:00
7:39 AM,28.4,24.8,86,29.89,10.0,NW,3.5,-,N/A,,Overcast,320,2012-12-07 14:39:00
7:53 AM,28.9,26.1,89,30.00,10.0,Calm,Calm,-,N/A,,Overcast,0,2012-12-07 14:53:00
8:53 AM,30.9,26.1,82,30.00,10.0,WNW,3.5,-,N/A,,Overcast,300,2012-12-07 15:53:00
9:53 AM,32.0,26.1,79,30.01,10.0,Calm,Calm,-,N/A,,Overcast,0,2012-12-07 16:53:00
10:53 AM,34.0,27.0,75,30.00,10.0,NNW,4.6,-,N/A,,Overcast,340,2012-12-07 17:53:00
11:35 AM,33.8,26.6,75,29.90,10.0,East,5.8,-,N/A,,Mostly Cloudy,90,2012-12-07 18:35:00
11:53 AM,34.0,27.0,75,29.99,10.0,Calm,Calm,-,N/A,,Mostly Cloudy,0,2012-12-07 18:53:00
12:23 PM,37.4,24.8,60,29.89,10.0,NNW,15.0,20.7,N/A,,Mostly Cloudy,330,2012-12-07 19:23:00
12:53 PM,39.0,23.0,53,29.97,10.0,NW,13.8,20.7,N/A,,Scattered Clouds,320,2012-12-07 19:53:00
1:53 PM,41.0,21.9,47,29.95,10.0,WNW,11.5,-,N/A,,Clear,300,2012-12-07 20:53:00
2:53 PM,39.9,21.9,49,29.96,10.0,NW,11.5,-,N/A,,Partly Cloudy,310,2012-12-07 21:53:00
3:53 PM,37.0,19.9,50,29.98,10.0,NW,8.1,-,N/A,,Partly Cloudy,310,2012-12-07 22:53:00
4:53 PM,32.0,21.0,64,30.01,10.0,NW,3.5,-,N/A,,Mostly Cloudy,310,2012-12-07 23:53:00
6:53 PM,27.0,19.9,75,30.04,10.0,Calm,Calm,-,N/A,,Clear,0,2012-12-08 01:53:00
7:53 PM,21.0,17.1,85,30.05,10.0,Calm,Calm,-,N/A,,Clear,0,2012-12-08 02:53:00
8:53 PM,19.0,16.0,88,30.06,10.0,SSW,3.5,-,N/A,,Clear,210,2012-12-08 03:53:00
9:53 PM,19.0,15.1,85,30.04,10.0,Calm,Calm,-,N/A,,Clear,0,2012-12-08 04:53:00
10:53 PM,19.9,16.0,85,30.01,10.0,SSW,3.5,-,N/A,,Clear,210,2012-12-08 05:53:00
11:53 PM,21.0,17.1,85,29.97,10.0,WSW,6.9,-,N/A,,Clear,250,2012-12-08 06:53:00